Weather History for Kahului, HI

Change the Weather History Date:

Sunday, March 25, 2012

  Actual Average Record
Temperature  
Mean Temperature 75 °F 73 °F  
Max Temperature 82 °F 82 °F 88 °F (1981)
Min Temperature 67 °F 65 °F 55 °F (1954)
Degree Days  
Heating Degree Days 0 0  
Month to date heating degree days 0 0  
Since 1 July heating degree days 0 0  
Cooling Degree Days 10 8  
Month to date cooling degree days 186 192  
Year to date cooling degree days 659 601  
Growing Degree Days 24 (Base 50)    
Moisture  
Dew Point 60 °F    
Average Humidity 63    
Maximum Humidity 81    
Minimum Humidity 45    
Precipitation  
Precipitation 0.01 in 0.08 in 0.70 in (1971)
Month to date precipitation 2.61 1.94  
Year to date precipitation 2.69 6.70  
Snow  
Snow 0.00 in - - ()
Month to date snowfall 0.0  
Since 1 July snowfall 0.0  
Snow Depth 0.00 in    
Sea Level Pressure  
Sea Level Pressure 30.10 in    
Wind  
Wind Speed 15 mph (NE)    
Max Wind Speed 23 mph    
Max Gust Speed 30 mph    
Visibility 10 miles    
Events      
T = Trace of Precipitation, MM = Missing Value Source: NWS Daily Summary

Daily Weather History Graph

Daily Weather History Graph

Search for Another Location

Airport:

Trip Planner

Search our weather history database for the weather conditions in past years. The results will help you decide how hot, cold, wet, or windy it might be!

Date:

Astronomy

Mar. 25, 2012 Rise Set
Actual Time 6:24 AM HST 6:38 PM HST
Civil Twilight 6:02 AM HST 7:00 PM HST
Nautical Twilight 5:36 AM HST 7:26 PM HST
Astronomical Twilight 5:10 AM HST 7:52 PM HST
Moon 8:12 AM HST (3/25) 9:32 PM HST (3/25)
Length of Visible Light 12h 58m
Length of Day
12h 13m
Waxing Crescent, 10% of the Moon is Illuminated
Mar 25
Waxing Crescent
Mar 30
First Quarter
Apr 6
Full
Apr 13
Last Quarter
Apr 20
New

Hourly Weather History & Observations

Time (HST) Temp. Heat Index Dew Point Humidity Pressure Visibility Wind Dir Wind Speed Gust Speed Precip Events Conditions
12:54 AM 69.1 °F - 62.1 °F 78% 30.11 in 10.0 mi ENE 15.0 mph 23.0 mph 0.01 in   Overcast
1:54 AM 68.0 °F - 62.1 °F 81% 30.10 in 10.0 mi ENE 11.5 mph - N/A   Overcast
2:54 AM 68.0 °F - 61.0 °F 78% 30.07 in 10.0 mi NE 12.7 mph - N/A   Mostly Cloudy
3:54 AM 68.0 °F - 61.0 °F 78% 30.06 in 10.0 mi NE 13.8 mph - 0.00 in   Overcast
4:54 AM 68.0 °F - 62.1 °F 81% 30.08 in 10.0 mi ENE 15.0 mph 21.9 mph 0.00 in   Overcast
5:54 AM 68.0 °F - 62.1 °F 81% 30.10 in 10.0 mi NE 8.1 mph - 0.00 in   Scattered Clouds
6:54 AM 68.0 °F - 61.0 °F 78% 30.11 in 10.0 mi NE 8.1 mph - N/A   Overcast
7:54 AM 69.1 °F - 61.0 °F 75% 30.12 in 10.0 mi ENE 10.4 mph - 0.00 in   Scattered Clouds
8:54 AM 73.9 °F - 61.0 °F 64% 30.13 in 10.0 mi ENE 19.6 mph 25.3 mph N/A   Scattered Clouds
9:54 AM 73.9 °F - 59.0 °F 59% 30.14 in 10.0 mi ENE 18.4 mph 29.9 mph N/A   Scattered Clouds
10:54 AM 79.0 °F - 57.9 °F 48% 30.13 in 10.0 mi NE 18.4 mph 23.0 mph N/A   Scattered Clouds
11:54 AM 80.1 °F 80.7 °F 59.0 °F 48% 30.11 in 10.0 mi NE 18.4 mph 28.8 mph N/A   Partly Cloudy
12:54 PM 80.1 °F 80.6 °F 57.9 °F 47% 30.08 in 10.0 mi ENE 19.6 mph 27.6 mph N/A   Partly Cloudy
1:54 PM 80.1 °F 80.6 °F 57.9 °F 47% 30.06 in 10.0 mi NE 19.6 mph 26.5 mph N/A   Scattered Clouds
2:54 PM 80.1 °F 80.6 °F 57.9 °F 47% 30.05 in 10.0 mi NE 20.7 mph 29.9 mph N/A   Partly Cloudy
3:54 PM 78.1 °F - 57.9 °F 50% 30.05 in 10.0 mi NE 17.3 mph 24.2 mph N/A   Partly Cloudy
4:54 PM 77.0 °F - 57.9 °F 52% 30.04 in 10.0 mi NE 16.1 mph 21.9 mph N/A   Partly Cloudy
5:54 PM 73.9 °F - 57.9 °F 57% 30.06 in 10.0 mi NE 17.3 mph 28.8 mph N/A   Partly Cloudy
6:54 PM 72.0 °F - 59.0 °F 64% 30.08 in 10.0 mi NE 19.6 mph 25.3 mph N/A   Partly Cloudy
7:54 PM 71.1 °F - 59.0 °F 66% 30.11 in 10.0 mi NE 13.8 mph - N/A   Clear
8:54 PM 70.0 °F - 60.1 °F 71% 30.13 in 10.0 mi NE 12.7 mph 23.0 mph N/A   Clear
9:54 PM 68.0 °F - 61.0 °F 78% 30.14 in 10.0 mi NE 3.5 mph - 0.00 in   Partly Cloudy
10:54 PM 69.1 °F - 60.1 °F 73% 30.13 in 10.0 mi NE 11.5 mph - N/A   Clear
11:54 PM 69.1 °F - 60.1 °F 73% 30.12 in 10.0 mi NE 12.7 mph - N/A   Partly Cloudy